Location: Zeiss-Gro�planetarium Berlin
(52.5430°N, 13.4281°E)
Time: 21:57:36
(UTC+01:00)

ISS - Pass Details

Date: 25 September 2020
Orbit: 417 x 420 km, 51.6° (Epoch: 27 October)

Event Time Altitude Azimuth Distance (km) Brightness Sun altitude
Rises 21:01:39 0° 270° (W) 2,369 1.2 -19.3°
Reaches altitude 10° 21:03:45 10° 269° (W) 1,505 0.0 -19.6°
Enters shadow 21:07:01 76° 208° (SSW) 439 -3.8 -20.0°
